www.pogodaiklimat.ru

Погода и климат >> Архив погоды >> Великобритания >> Гаварден


ПОГОДА в Гавардене

  • Прогноз погоды в Гавардене
  • Монитор погоды в Гавардене

АРХИВ ПОГОДЫ в Гавардене

Время (UTC), дата Ветер
(напр.,м/с)
 
Видим.   Явления Облачность Т
(С)
Тd
(С)
f
(%)
Тe
(С)
Тes
(С)
Комфортность P
(гПа)
Po
(гПа)
Тmin
(С)
Tmax
(С)
R
(мм)
R24
(мм)
S
(см)
01 9.06 ЮЗ 3 40 км в посл. час дождь н/о +10.6 +8.6 87 +9 +9 1017.9 1016.7
02 9.06 ЮЗ 3 30 км н/о +10.2 +8.1 87 +8 +8 1017.9 1016.7
03 9.06 ЮЗ 4 35 км н/о +8.9 +7.3 90 +6 +6 1018.0 1016.8
04 9.06 ЮЗ 4 35 км н/о +8.7 +6.9 88 +6 +6 1018.6 1017.4
05 9.06 Ю 2 35 км н/о +8.3 +7.2 93 +6 +6 1018.7 1017.5
06 9.06 ЮВ 1 26 км н/о +10.5 +8.3 86 +10 +10 1019.0 1017.7 +7.7 0.0
07 9.06 ЮВ 3 40 км н/о +12.1 +9.0 81 +10 +10 1019.2 1018.0
08 9.06 Ю 4 50 км н/о +13.8 +7.8 67 +13 +13 1019.6 1018.4
09 9.06 ЮЗ 3 40 км н/о +14.7 +7.7 63 +14 +14 1019.7 1018.5
10 9.06 З 4 30 км н/о +15.1 +7.0 58 +14 +14 1019.5 1018.3
11 9.06 З 3 45 км н/о +15.1 +6.6 57 +14 +14 1019.4 1018.2
12 9.06 Ю 3 40 км н/о +16.7 +8.3 58 +16 +16 1019.1 1017.9
13 9.06 СЗ 4 45 км н/о +16.4 +8.1 58 +16 +16 1019.0 1017.8
14 9.06 СЗ 3 40 км н/о +16.2 +7.5 56 +16 +16 1018.8 1017.6
15 9.06 СЗ 4 40 км слаб. ливневой дождь н/о +14.8 +6.9 59 +14 +14 1018.8 1017.6
16 9.06 ЮВ 3 13 км ливневой дождь н/о +13.1 +10.2 83 +12 +12 1019.1 1017.9
17 9.06 В 3 24 км в посл. час дождь н/о +13.5 +10.3 81 +13 +13 1019.1 1017.9
18 9.06 В 1 50 км н/о +14.7 +9.7 72 +15 +15 1018.9 1017.7 +17.4 0.2
19 9.06 СВ 1 40 км н/о +13.6 +9.0 74 +14 +14 1019.0 1017.8
20 9.06 Ю 3 11 км ливневой дождь н/о +12.5 +10.0 85 +11 +11 1019.3 1018.1
21 9.06 Ю 2 11 км дождь н/о +11.7 +10.2 91 +10 +10 1019.5 1018.3
22 9.06 ЮЗ 2 12 км в посл. час дождь н/о +9.1 +8.0 93 +7 +7 1019.5 1018.3
23 9.06 С 1 1900 м дымка н/о +9.2 +8.8 97 +9 +9 1019.4 1018.1
00 10.06 З 1 24 км слаб. морось с дождем н/о +8.1 +7.8 98 +8 +8 1019.3 1018.0 0.8
01 10.06 Ю 1 100 м туман н/о +7.1 +6.9 99 +7 +7 1019.2 1017.9
02 10.06 штиль 0 3900 м в посл. час туман н/о +5.9 +5.6 98 +5 +5 1019.0 1017.8
03 10.06 З 1 300 м туман н/о +4.2 +4.0 99 +4 +4 1018.8 1017.5
04 10.06 ЮЗ 1 14 км в посл. час туман н/о +4.3 +4.2 99 +3 +3 1018.8 1017.5
05 10.06 СВ 1 15 км н/о +6.0 +5.9 99 +6 +6 1018.6 1017.3
06 10.06 Ю 1 35 км н/о +8.2 +8.2 100 +8 +8 1018.4 1017.2 +3.8 0.8
07 10.06 СВ 1 35 км н/о +11.9 +9.6 86 +12 +12 1018.6 1017.3
08 10.06 С 2 45 км н/о +13.3 +9.5 78 +13 +13 1018.5 1017.3
09 10.06 С 3 35 км н/о +14.6 +7.8 64 +14 +14 1018.3 1017.1
10 10.06 С 3 40 км н/о +15.7 +6.3 54 +15 +15 1018.3 1017.1
11 10.06 СЗ 5 27 км н/о +15.7 +8.6 63 +15 +15 1018.1 1016.9
12 10.06 СЗ 5 50 км н/о +15.7 +9.4 66 +15 +15 1017.8 1016.6
13 10.06 СЗ 6 30 км н/о +15.8 +9.0 64 +14 +14 1017.5 1016.3
14 10.06 СЗ 7 45 км н/о +16.2 +9.9 66 +15 +15 1017.0 1015.8
15 10.06 С 7-14
{14}
7000 м ливневой дождь н/о +12.8 +9.6 81 +10 +10 1017.6 1016.4
16 10.06 З 3 26 км слаб. дождь н/о +12.3 +10.4 88 +11 +11 1017.8 1016.6
17 10.06 СЗ 4 35 км в посл. час дождь н/о +12.4 +10.3 87 +11 +11 1017.9 1016.6
18 10.06 СВ 3 40 км н/о +13.4 +9.6 78 +12 +12 1018.5 1017.3 +17.1 3
19 10.06 В 4 45 км слаб. морось с дождем н/о +12.0 +8.3 78 +10 +10 1018.9 1017.7
20 10.06 СВ 3 23 км слаб. дождь н/о +11.0 +8.4 84 +9 +9 1019.1 1017.9
21 10.06 СЗ 2 19 км дождь н/о +10.6 +9.1 90 +9 +9 1019.0 1017.8
22 10.06 СЗ 2 17 км дождь н/о +10.8 +9.0 89 +9 +9 1019.0 1017.8
23 10.06 СЗ 3 25 км слаб. дождь н/о +10.9 +9.5 91 +9 +9 1018.9 1017.7
00 11.06 СЗ 3 24 км слаб. морось с дождем н/о +11.2 +9.9 92 +9 +9 1018.7 1017.5 3
01 11.06 С 2 24 км дождь н/о +10.9 +9.1 89 +9 +9 1018.5 1017.3
02 11.06 С 4 30 км слаб. дождь н/о +10.7 +9.0 89 +8 +8 1018.3 1017.1
03 11.06 С 4 50 км в посл. час дождь н/о +10.9 +8.5 85 +8 +8 1018.1 1016.9
04 11.06 С 4 16 км слаб. дождь н/о +10.7 +8.6 87 +8 +8 1018.1 1016.8
05 11.06 С 5 13 км сильн. дождь н/о +10.2 +8.5 89 +7 +7 1018.2 1017.0
06 11.06 С 4 13 км дождь н/о +9.9 +8.3 90 +7 +7 1018.6 1017.3 +9.7 11
07 11.06 С 5 16 км дождь н/о +9.5 +8.1 91 +6 +6 1018.7 1017.5
08 11.06 С 5 13 км дождь н/о +9.3 +8.1 92 +6 +6 1018.6 1017.4
09 11.06 С 5 11 км сильн. дождь н/о +9.4 +8.2 92 +6 +6 1018.8 1017.6
10 11.06 С 5 13 км дождь н/о +9.6 +8.6 93 +6 +6 1018.6 1017.4
11 11.06 СЗ 5 12 км дождь н/о +10.0 +8.7 92 +7 +7 1018.8 1017.6
12 11.06 С 5 19 км дождь н/о +10.1 +8.8 92 +7 +7 1019.0 1017.8 14
13 11.06 С 4 16 км дождь н/о +10.4 +9.1 92 +8 +8 1018.9 1017.7
14 11.06 С 5 13 км дождь н/о +10.6 +9.3 92 +8 +8 1019.0 1017.8
15 11.06 С 4 15 км дождь н/о +10.5 +9.1 91 +8 +8 1019.0 1017.8
16 11.06 С 4 9000 м дождь н/о +10.4 +8.7 89 +8 +8 1019.1 1017.8
17 11.06 С 4 18 км дождь н/о +10.3 +8.6 89 +8 +8 1018.8 1017.6
18 11.06 С 3 9000 м дождь н/о +10.0 +9.1 94 +8 +8 1018.7 1017.5 +10.7 22
19 11.06 СЗ 3 10 км сильн. дождь н/о +9.9 +9.2 95 +7 +7 1018.5 1017.3
20 11.06 СЗ 4 13 км дождь н/о +9.7 +8.8 94 +7 +7 1018.4 1017.2
21 11.06 СЗ 4 13 км дождь н/о +9.5 +8.8 95 +6 +6 1018.3 1017.0
22 11.06 СЗ 4 8000 м дождь н/о +9.6 +8.9 95 +7 +7 1018.0 1016.8
23 11.06 СЗ 4 10 км дождь н/о +9.6 +8.9 95 +7 +7 1017.5 1016.3
00 12.06 СЗ 4 15 км дождь н/о +9.5 +8.8 95 +7 +7 1016.9 1015.7 12
01 12.06 СЗ 5 12 км дождь н/о +9.2 +8.5 95 +6 +6 1016.1 1014.9
02 12.06 СЗ 4 10 км сильн. дождь н/о +9.0 +8.3 95 +6 +6 1015.7 1014.5
03 12.06 СЗ 4 7000 м дождь н/о +9.0 +8.3 95 +6 +6 1015.1 1013.9
04 12.06 СЗ 3 7000 м дождь н/о +8.8 +8.3 97 +6 +6 1014.5 1013.3
05 12.06 СЗ 4 7000 м дождь н/о +9.1 +8.6 97 +6 +6 1014.0 1012.7
06 12.06 СЗ 5 7000 м дождь н/о +9.4 +8.9 97 +6 +6 1013.8 1012.5 +8.8 30
07 12.06 СЗ 5 8000 м слаб. дождь н/о +9.5 +8.9 96 +6 +6 1013.3 1012.1
08 12.06 СЗ 4 6000 м слаб. морось н/о +9.9 +9.5 97 +7 +7 1012.9 1011.7
09 12.06 СЗ 4 17 км в посл. час дождь н/о +10.5 +9.6 94 +8 +8 1012.6 1011.3
10 12.06 СЗ 4 23 км слаб. ливневой дождь н/о +11.1 +9.6 90 +9 +9 1012.4 1011.2
11 12.06 СЗ 4 5000 м слаб. морось н/о +10.9 +10.3 96 +8 +8 1012.2 1011.0
12 12.06 СЗ 4 6000 м слаб. морось н/о +11.3 +10.8 97 +9 +9 1011.7 1010.4 2
13 12.06 СЗ 3 7000 м в посл. час дождь н/о +11.9 +11.5 97 +10 +10 1011.3 1010.1
14 12.06 СЗ 3 45 км н/о +12.7 +11.5 92 +11 +11 1010.6 1009.4
15 12.06 СЗ 3 45 км н/о +13.2 +11.3 88 +12 +12 1010.0 1008.8
16 12.06 СЗ 3 45 км н/о +13.5 +11.4 87 +12 +12 1009.8 1008.6
17 12.06 СЗ 4 29 км н/о +13.2 +11.0 87 +12 +12 1009.1 1007.9
18 12.06 СЗ 4 45 км н/о +13.1 +11.1 88 +11 +11 1008.4 1007.2 +13.5 2
19 12.06 СЗ 3 40 км н/о +13.1 +11.5 90 +12 +12 1008.0 1006.8
20 12.06 СЗ 4 24 км н/о +12.9 +11.4 91 +11 +11 1007.5 1006.3
21 12.06 СЗ 4 40 км н/о +12.5 +11.1 91 +11 +11 1007.4 1006.2
22 12.06 СЗ 3 50 км н/о +12.4 +11.1 92 +11 +11 1006.9 1005.7
23 12.06 СЗ 3 45 км н/о +12.2 +11.0 92 +11 +11 1006.4 1005.2
00 13.06 СЗ 3 29 км в посл. час дождь н/о +12.1 +11.1 94 +11 +11 1005.7 1004.5 0.0
01 13.06 С 2 6000 м дождь н/о +11.8 +11.3 97 +11 +11 1005.0 1003.8
02 13.06 С 2 5000 м сильн. дождь н/о +11.7 +11.2 97 +11 +11 1004.2 1003.0
03 13.06 СЗ 2 28 км слаб. дождь н/о +11.0 +10.5 97 +10 +10 1003.6 1002.4
04 13.06 СЗ 3 4400 м ливневой дождь н/о +11.1 +10.6 97 +9 +9 1003.3 1002.1
05 13.06 СЗ 5 30 км в посл. час дождь н/о +11.3 +10.5 95 +8 +8 1003.0 1001.8
06 13.06 С 5 35 км дождь н/о +10.7 +9.9 95 +8 +8 1003.0 1001.8 +10.7 6
07 13.06 С 5 30 км слаб. дождь н/о +10.7 +9.7 94 +8 +8 1002.9 1001.7
08 13.06 С 5 27 км слаб. дождь н/о +10.8 +9.5 92 +8 +8 1003.0 1001.8
09 13.06 СЗ 4 15 км слаб. морось н/о +10.8 +9.5 92 +8 +8 1003.2 1002.0
10 13.06 С 5 18 км слаб. ливневой дождь н/о +11.2 +9.7 90 +8 +8 1003.2 1002.0
11 13.06 СЗ 5 28 км слаб. дождь н/о +11.5 +9.6 88 +9 +9 1003.5 1002.3
12 13.06 СЗ 4 4900 м слаб. дождь н/о +10.5 +9.4 93 +8 +8 1003.9 1002.7 0.6
13 13.06 СЗ 4 6000 м слаб. морось с дождем н/о +11.3 +10.4 94 +9 +9 1003.9 1002.7
14 13.06 СЗ 5 17 км в посл. час дождь н/о +10.9 +9.4 90 +8 +8 1004.1 1002.9
15 13.06 СЗ 4 16 км слаб. дождь н/о +11.6 +10.2 91 +9 +9 1004.3 1003.1
16 13.06 СЗ 4 40 км в посл. час дождь н/о +11.9 +8.9 82 +10 +10 1004.2 1003.0
17 13.06 СЗ 3 40 км в посл. час дождь н/о +12.2 +9.0 81 +11 +11 1004.5 1003.3
18 13.06 СЗ 2 45 км н/о +11.5 +8.4 81 +10 +10 1004.7 1003.5 +12.3 1
19 13.06 З 2 50 км н/о +11.4 +8.5 82 +11 +11 1004.9 1003.7
20 13.06 З 1 45 км н/о +11.1 +8.7 85 +11 +11 1005.3 1004.1
21 13.06 З 1 40 км н/о +10.9 +9.0 88 +11 +11 1005.9 1004.7
22 13.06 ЮЗ 2 50 км н/о +11.0 +8.7 86 +10 +10 1006.2 1005.0
23 13.06 ЮЗ 4 35 км н/о +10.9 +8.5 85 +9 +9 1006.1 1004.9
00 14.06 Ю 2 45 км слаб. морось с дождем н/о +10.1 +9.0 93 +9 +9 1006.1 1004.8 0.6
01 14.06 Ю 1 15 км слаб. ливневой дождь н/о +10.0 +8.4 90 +9 +9 1005.9 1004.7
02 14.06 ЮВ 1 9000 м ливневой дождь н/о +9.6 +8.5 93 +9 +9 1005.6 1004.4
03 14.06 В 1 11 км дождь н/о +9.6 +8.8 95 +10 +10 1005.2 1004.0
04 14.06 ЮВ 2 9000 м слаб. дождь н/о +9.9 +9.4 97 +9 +9 1005.2 1004.0
05 14.06 Ю 3 12 км слаб. морось н/о +9.9 +9.6 98 +7 +7 1005.2 1004.0
06 14.06 Ю 3 15 км слаб. дождь н/о +10.2 +9.8 97 +8 +8 1005.3 1004.1 +9.5 4
07 14.06 СЗ 2 9000 м дождь н/о +9.3 +8.6 95 +7 +7 1005.6 1004.4
08 14.06 ЮВ 1 28 км в посл. час дождь н/о +10.4 +10.0 97 +10 +10 1006.0 1004.8
09 14.06 Ю 2 50 км н/о +12.1 +10.1 88 +11 +11 1006.6 1005.4
10 14.06 ЮЗ 4 35 км н/о +14.1 +9.0 71 +13 +13 1006.8 1005.6
11 14.06 Ю 3 40 км н/о +15.1 +9.7 70 +15 +15 1007.0 1005.8
12 14.06 ЮВ 2 35 км н/о +15.9 +9.3 65 +16 +16 1007.2 1006.0 0.6
13 14.06 Ю 5 40 км н/о +15.8 +8.6 62 +15 +15 1007.3 1006.1
14 14.06 Ю 4 40 км н/о +15.4 +7.4 59 +14 +14 1007.4 1006.2
15 14.06 Ю 3 40 км н/о +16.0 +8.1 59 +16 +16 1007.5 1006.3
16 14.06 Ю 3 28 км н/о +16.3 +8.6 60 +16 +16 1007.4 1006.2
17 14.06 ЮВ 4 45 км н/о +16.1 +9.9 67 +16 +16 1007.5 1006.3
18 14.06 Ю 3 30 км н/о +15.8 +10.4 70 +16 +16 1007.7 1006.5 +16.5 0.6
19 14.06 Ю 3 35 км н/о +15.2 +9.3 68 +15 +15 1008.0 1006.8
20 14.06 Ю 2 45 км н/о +14.0 +9.7 75 +14 +14 1008.4 1007.2
21 14.06 Ю 2 27 км н/о +11.6 +9.1 85 +11 +11 1008.8 1007.6
22 14.06 Ю 3 35 км н/о +10.5 +8.3 86 +8 +8 1009.2 1008.0
23 14.06 ЮВ 3 30 км н/о +10.1 +8.0 87 +8 +8 1009.2 1008.0
00 15.06 ЮВ 3 35 км н/о +10.8 +8.4 85 +9 +9 1009.4 1008.2
01 15.06 ЮВ 4 29 км в посл. час туман н/о +11.2 +8.4 83 +9 +9 1009.3 1008.1
02 15.06 ЮВ 3 27 км н/о +9.9 +8.4 90 +8 +8 1009.0 1007.8
03 15.06 Ю 3 30 км н/о +10.0 +8.6 91 +8 +8 1008.8 1007.6
04 15.06 ЮВ 3 19 км н/о +9.5 +8.4 93 +7 +7 1008.4 1007.2
05 15.06 Ю 5 18 км н/о +10.9 +9.9 94 +8 +8 1008.0 1006.8
06 15.06 Ю 6 19 км н/о +11.6 +9.6 88 +9 +9 1007.9 1006.7 +9.2
07 15.06 ЮВ 5 27 км н/о +12.4 +10.0 85 +10 +10 1008.0 1006.8
08 15.06 Ю 6 30 км н/о +13.2 +10.3 83 +11 +11 1008.1 1006.9
09 15.06 Ю 5 26 км н/о +13.6 +10.7 83 +12 +12 1008.3 1007.1
10 15.06 Ю 5 30 км слаб. морось с дождем н/о +13.6 +11.6 88 +12 +12 1008.6 1007.4
11 15.06 Ю 6 45 км в посл. час дождь н/о +16.5 +10.2 66 +15 +15 1008.7 1007.6
12 15.06 Ю 5 40 км н/о +16.7 +9.1 61 +16 +16 1009.2 1008.0 0.0
13 15.06 ЮЗ 4 40 км н/о +17.1 +8.5 57 +17 +17 1009.3 1008.1
14 15.06 ЮЗ 3 35 км н/о +17.1 +8.0 55 +17 +17 1009.3 1008.2
15 15.06 ЮЗ 4 50 км н/о +17.0 +7.0 52 +17 +17 1009.5 1008.3
16 15.06 З 4 40 км н/о +15.8 +7.3 57 +15 +15 1010.0 1008.8
17 15.06 ЮЗ 4 45 км н/о +15.0 +6.7 58 +14 +14 1010.3 1009.1
18 15.06 З 2 45 км н/о +15.0 +7.2 60 +15 +15 1010.4 1009.2 +18.6 0.0
19 15.06 ЮЗ 4 45 км н/о +15.3 +6.3 55 +15 +15 1010.7 1009.5
20 15.06 ЮЗ 3 50 км н/о +13.7 +7.2 65 +13 +13 1010.9 1009.7
21 15.06 ЮЗ 2 50 км в посл. час дождь н/о +11.6 +6.0 68 +11 +11 1011.5 1010.3
22 15.06 ЮЗ 3 50 км н/о +9.3 +6.4 82 +7 +7 1011.9 1010.6
23 15.06 Ю 2 40 км н/о +7.7 +6.1 90 +6 +6 1012.1 1010.8
00 16.06 Ю 3 35 км н/о +8.8 +7.4 91 +6 +6 1012.1 1010.9 0.0

 

Местоположение метеостанции Гаварден (Великобритания): широта 53.17 долгота -2.98 высота над уровнем моря 9 м.

В архиве по умолчанию представлена погода в Гавардене за последнюю неделю. Архивные данные за месяц целиком и за предыдущие месяцы, начиная с января 2011 года, Вы можете получить, выбрав интересующий диапазон дат из раскрывающегося списка и нажав кнопку "Ввод!".


*Определитесь, кто Вы:
робот инопланетянин человек

Внимание! Время в таблицах - всемирное. Для получения местного времени необходимо прибавить поправку, которая равна 0 ч.

Смотрите также архив погоды в соседних городах и на ближайших метеорологических станциях:

Погода в Риле (Великобритания) (36 км)
Погода в Кросби (Великобритания) (37 км)
Погода на Ростерн Мир (Великобритания) (45 км)
Погода в Шобери (Великобритания) (46 км)
Погода в Бала (Великобритания) (50 км)
Погода на Озере Вирнви (Великобритания) (57 км)
Погода в Кейпл Кериг (Великобритания) (64 км)
Погода в Блэкпуле (Великобритания) (67 км)
Погода в Лик-Торнклифф (Великобритания) (67 км)
Погода в Моне (Великобритания) (93 км)

Пояснения к столбцам:

Ветер - указаны скорость ветра в м/с - средняя за 10 мин, порывы в срок и между сроками (в фигурных скобках) и направление, откуда дует ветер: С - северный, СВ - северо-восточный, В - восточный, ЮВ - юго-восточный, Ю - южный, ЮЗ - юго-западный, З - западный, СЗ - северо-западный.
Видимость - горизонтальная дальность видимости в метрах или километрах. При видимости от 1 до 10 км при отсутствии осадков обычно наблюдается дымка, при ухудшении видимости до 1 км и менее - туман. В сухую погоду видимость может ухудшаться дымом, пылью или мглою.
Явления - указаны атмосферные явления, наблюдавшиеся в срок или в последний час перед сроком; фигурными скобками обозначены явления, наблюдавшиеся между сроками (за 1-3 часа до срока); квадратными скобками обозначены град или гололедные отложения с указанием их диаметра в мм.
Облачность - указаны через наклонную черту общая и нижняя облачность в баллах и высота нижней границы облаков в метрах; квадратными скобками обозначены формы облаков: Ci - перистые, Cs - перисто-слоистые, Cc - перисто-кучевые, Ac - высококучевые, As - высокослоистые, Sc - слоисто-кучевые, Ns - слоисто-дождевые, Cu - кучевые, Cb - кучево-дождевые. Подробнее классификацию облаков см. в Атласе облаков (PDF).
T - Температура воздуха - температура, измеренная на высоте 2 м над землей.
Td - Температура точки росы - температура, при понижении до которой содержащийся в воздухе водяной пар достигнет насыщения.
f - Относительная влажность воздуха - влажноcть воздуха, измеренная на высоте 2 м над землей.
Te - Эффективная температура - температура, которую ощущает одетый по сезону человек в тени. Характеристика душности погоды. При расчете учитывается влияние влажности воздуха и скорости ветра на теплоощущения человека.
Tes - Эффективная температура на солнце - температура, которую ощущает человек, с поправкой на солнечный нагрев. Характеристика знойности погоды. Зависит от высоты солнца над горизонтом, облачности и скорости ветра. Ночью, в пасмурную погоду, а также при ветре 12 м/с и более поправка равна нулю.
P - Атмосферное давление - приведенное к уровню моря атмосферное давление.
Po - Атмосферное давление - измеренное на уровне метеостанции атмосферное давление.
Tmin - Минимальная температура - минимум температуры воздуха на высоте 2 м над землей.
Tmax - Максимальная температура - максимум температуры воздуха на высоте 2 м над землей.
R - Количество осадков - Количество выпавших осадков за период времени, мм. При наведении курсора мыши на число - период времени, за который выпало указанное количество осадков.
R24 - Количество осадков - Количество выпавших осадков за 24 часа, мм.
S - Снежный покров - Высота снежного покрова, см. При наведении курсора мыши на число - состояние снежного покрова и степень покрытия местности в баллах.